User: anonymous   Login
Location: Unspecified
(0.0000°N, 0.0000°E)
Time: 22:52:29
(UTC+02:00)
Language:

ATLAS V CENTAUR R/B - Orbit

View from above orbital plane
View from above orbital plane
View from above satellite
View from above satellite

Ground track
Ground track

The orbit data is extracted from the following two-line orbital elements,

1 27500U 02038B   17175.79485131 +.00000908 +00000-0 +18597-3 0  9996
2 27500 018.1116 053.8391 6756930 322.9962 005.6539 02.96782233126179
Epoch (UTC): 24 June 2017 19:04:35
Eccentricity: 0.6756930
inclination: 18.1116°
perigee height: 255 km
apogee height: 27896 km
right ascension of ascending node: 53.8391°
argument of perigee: 322.9962°
revolutions per day: 2.96782233
mean anomaly at epoch: 5.6539°
orbit number at epoch: 12617

The dashed part of the orbit path shows where the satellite is in the earth's shadow,  

DLR